User: anonymous   Login
Location: Pulvis Stellarum Observatory
(41.6962°N, 71.4263°W)
Time: 18:06:11
(UTC-04:00)
Language:

Cosmos 1758 - Orbit

View from above orbital plane
View from above orbital plane
View from above satellite
View from above satellite

Ground track
Ground track

The orbit data is extracted from the following two-line orbital elements,

1 16791U 86046A   16273.45123747  .00001388  00000-0  97888-4 0  9994
2 16791  82.4679 286.0555 0015215 255.0199 104.9343 15.04149045646483
Epoch (UTC): 29 September 2016 10:49:46
Eccentricity: 0.0015215
inclination: 82.4679°
perigee height: 543 km
apogee height: 564 km
right ascension of ascending node: 286.0555°
argument of perigee: 255.0199°
revolutions per day: 15.04149045
mean anomaly at epoch: 104.9343°
orbit number at epoch: 64648

The dashed part of the orbit path shows where the satellite is in the earth's shadow,  

DLR